• In Österreich
  • Länderverzeichnis
  • Für 7 Tage
  • Wassertemperatur
  • Satellitenkarten
  • Wetterkarte
  • News
  • Widgets
  • user-avatar
    Anmelden

    Stündliche Wetter Tarfaya

    Heute, 19 Januar, Freitag

    Zeit Temperatur Niederschläge Wind Luftdruck Luftfeuchtigkeit
    00:00 +16°C° 0 mm 6 m/S 764 mmHg 76%
    01:00 +16°C° 0 mm 7 m/S 764 mmHg 77%
    02:00 +16°C° 0 mm 7 m/S 764 mmHg 77%
    03:00 +16°C° 0 mm 7 m/S 764 mmHg 78%
    04:00 +15°C° 0 mm 7 m/S 764 mmHg 78%
    05:00 +15°C° 0 mm 7 m/S 764 mmHg 78%
    06:00 +16°C° 0 mm 7 m/S 764 mmHg 76%
    07:00 +16°C° 0 mm 7 m/S 765 mmHg 75%
    08:00 +16°C° 0 mm 8 m/S 765 mmHg 74%
    09:00 +17°C° 0 mm 8 m/S 766 mmHg 69%
    10:00 +18°C° 0 mm 8 m/S 766 mmHg 63%
    11:00 +20°C° 0 mm 8 m/S 766 mmHg 53%
    12:00 +20°C° 0 mm 8 m/S 766 mmHg 54%
    13:00 +20°C° 0 mm 8 m/S 766 mmHg 56%
    14:00 +19°C° 0 mm 9 m/S 765 mmHg 57%
    15:00 +19°C° 0 mm 9 m/S 766 mmHg 60%
    16:00 +18°C° 0 mm 9 m/S 766 mmHg 63%
    17:00 +17°C° 0 mm 9 m/S 766 mmHg 66%
    18:00 +17°C° 0 mm 9 m/S 766 mmHg 69%
    19:00 +16°C° 0 mm 9 m/S 766 mmHg 73%
    20:00 +16°C° 0 mm 9 m/S 766 mmHg 77%
    21:00 +16°C° 0 mm 9 m/S 767 mmHg 79%
    22:00 +16°C° 0 mm 9 m/S 767 mmHg 81%
    23:00 +15°C° 0 mm 9 m/S 767 mmHg 84%

    Morgen, 20 Januar, Samstag

    Zeit Temperatur Niederschläge Wind Luftdruck Luftfeuchtigkeit
    00:00 +15°C° 0 mm 8 m/S 766 mmHg 82%
    01:00 +16°C° 0 mm 8 m/S 766 mmHg 79%
    02:00 +16°C° 0 mm 8 m/S 766 mmHg 77%
    03:00 +16°C° 0 mm 8 m/S 766 mmHg 79%
    04:00 +15°C° 0 mm 8 m/S 766 mmHg 81%
    05:00 +15°C° 0 mm 8 m/S 766 mmHg 82%
    06:00 +15°C° 0 mm 8 m/S 766 mmHg 83%
    07:00 +15°C° 0 mm 8 m/S 767 mmHg 83%
    08:00 +15°C° 0 mm 8 m/S 767 mmHg 84%
    09:00 +17°C° 0 mm 7 m/S 767 mmHg 73%
    10:00 +20°C° 0 mm 7 m/S 768 mmHg 61%
    11:00 +21°C° 0 mm 6 m/S 768 mmHg 50%
    12:00 +23°C° 0 mm 6 m/S 767 mmHg 41%
    13:00 +25°C° 0 mm 5 m/S 767 mmHg 32%
    14:00 +26°C° 0 mm 5 m/S 766 mmHg 22%
    15:00 +26°C° 0 mm 5 m/S 766 mmHg 22%
    16:00 +25°C° 0 mm 5 m/S 766 mmHg 22%
    17:00 +24°C° 0 mm 6 m/S 767 mmHg 22%
    18:00 +22°C° 0 mm 6 m/S 767 mmHg 31%
    19:00 +21°C° 0 mm 6 m/S 767 mmHg 40%
    20:00 +19°C° 0 mm 6 m/S 768 mmHg 50%
    21:00 +19°C° 0 mm 6 m/S 768 mmHg 46%
    22:00 +19°C° 0 mm 6 m/S 768 mmHg 42%
    23:00 +18°C° 0 mm 7 m/S 769 mmHg 38%

    übermorgen, 21 Januar, Sonntag

    Zeit Temperatur Niederschläge Wind Luftdruck Luftfeuchtigkeit
    00:00 +19°C° 0 mm 6 m/S 768 mmHg 36%
    01:00 +17°C° 0 mm 6 m/S 768 mmHg 33%
    02:00 +17°C° 0 mm 6 m/S 768 mmHg 31%
    03:00 +17°C° 0 mm 6 m/S 768 mmHg 31%
    04:00 +16°C° 0 mm 6 m/S 768 mmHg 32%
    05:00 +16°C° 0 mm 6 m/S 768 mmHg 32%
    06:00 +16°C° 0 mm 6 m/S 768 mmHg 31%
    07:00 +16°C° 0 mm 5 m/S 769 mmHg 30%
    08:00 +17°C° 0 mm 5 m/S 769 mmHg 29%
    09:00 +19°C° 0 mm 5 m/S 769 mmHg 27%
    10:00 +21°C° 0 mm 5 m/S 769 mmHg 25%
    11:00 +23°C° 0 mm 5 m/S 769 mmHg 23%
    12:00 +25°C° 0 mm 5 m/S 769 mmHg 21%
    13:00 +26°C° 0 mm 5 m/S 768 mmHg 18%
    14:00 +27°C° 0 mm 5 m/S 767 mmHg 16%
    15:00 +26°C° 0 mm 5 m/S 767 mmHg 16%
    16:00 +26°C° 0 mm 5 m/S 767 mmHg 16%
    17:00 +24°C° 0 mm 6 m/S 767 mmHg 16%
    18:00 +23°C° 0 mm 6 m/S 768 mmHg 23%
    19:00 +21°C° 0 mm 6 m/S 768 mmHg 30%
    20:00 +20°C° 0 mm 6 m/S 768 mmHg 37%
    21:00 +19°C° 0 mm 6 m/S 768 mmHg 41%
    22:00 +19°C° 0 mm 6 m/S 769 mmHg 44%
    23:00 +17°C° 0 mm 5 m/S 769 mmHg 48%

    22 Januar, Montag

    Zeit Temperatur Niederschläge Wind Luftdruck Luftfeuchtigkeit
    00:00 +17°C° 0 mm 5 m/S 768 mmHg 47%
    01:00 +17°C° 0 mm 5 m/S 768 mmHg 46%
    02:00 +17°C° 0 mm 5 m/S 768 mmHg 45%
    03:00 +16°C° 0 mm 5 m/S 767 mmHg 41%
    04:00 +17°C° 0 mm 4 m/S 767 mmHg 37%
    05:00 +17°C° 0 mm 4 m/S 767 mmHg 33%
    06:00 +18°C° 0 mm 4 m/S 767 mmHg 30%
    07:00 +18°C° 0 mm 4 m/S 768 mmHg 28%
    08:00 +18°C° 0 mm 4 m/S 768 mmHg 25%
    09:00 +20°C° 0 mm 4 m/S 768 mmHg 22%
    10:00 +22°C° 0 mm 4 m/S 768 mmHg 20%
    11:00 +25°C° 0 mm 4 m/S 768 mmHg 17%
    12:00 +26°C° 0 mm 4 m/S 768 mmHg 15%
    13:00 +27°C° 0 mm 4 m/S 767 mmHg 14%
    14:00 +28°C° 0 mm 4 m/S 766 mmHg 12%
    15:00 +27°C° 0 mm 5 m/S 766 mmHg 13%
    16:00 +26°C° 0 mm 5 m/S 766 mmHg 14%
    17:00 +26°C° 0 mm 6 m/S 766 mmHg 15%
    18:00 +23°C° 0 mm 6 m/S 767 mmHg 22%
    19:00 +22°C° 0 mm 6 m/S 767 mmHg 28%
    20:00 +20°C° 0 mm 7 m/S 767 mmHg 35%
    21:00 +19°C° 0 mm 6 m/S 767 mmHg 37%
    22:00 +19°C° 0 mm 6 m/S 767 mmHg 38%
    23:00 +17°C° 0 mm 6 m/S 767 mmHg 40%

    23 Januar, Dienstag

    Zeit Temperatur Niederschläge Wind Luftdruck Luftfeuchtigkeit
    00:00 +17°C° 0 mm 6 m/S 767 mmHg 39%
    01:00 +17°C° 0 mm 6 m/S 767 mmHg 39%
    02:00 +16°C° 0 mm 6 m/S 766 mmHg 38%
    03:00 +16°C° 0 mm 5 m/S 766 mmHg 37%
    04:00 +16°C° 0 mm 5 m/S 766 mmHg 36%
    05:00 +16°C° 0 mm 5 m/S 766 mmHg 35%
    06:00 +16°C° 0 mm 5 m/S 767 mmHg 33%
    07:00 +16°C° 0 mm 5 m/S 767 mmHg 31%
    08:00 +17°C° 0 mm 5 m/S 768 mmHg 29%
    09:00 +20°C° 0 mm 5 m/S 767 mmHg 24%
    10:00 +22°C° 0 mm 5 m/S 767 mmHg 20%
    11:00 +26°C° 0 mm 5 m/S 767 mmHg 15%
    12:00 +27°C° 0 mm 5 m/S 767 mmHg 14%
    13:00 +27°C° 0 mm 5 m/S 766 mmHg 14%
    14:00 +28°C° 0 mm 5 m/S 765 mmHg 13%
    15:00 +27°C° 0 mm 5 m/S 765 mmHg 15%
    16:00 +27°C° 0 mm 6 m/S 765 mmHg 16%
    17:00 +26°C° 0 mm 6 m/S 765 mmHg 17%
    18:00 +23°C° 0 mm 6 m/S 765 mmHg 23%
    19:00 +22°C° 0 mm 6 m/S 766 mmHg 30%
    20:00 +20°C° 0 mm 6 m/S 766 mmHg 36%
    21:00 +20°C° 0 mm 6 m/S 766 mmHg 37%
    22:00 +19°C° 0 mm 6 m/S 766 mmHg 38%
    23:00 +19°C° 0 mm 6 m/S 766 mmHg 39%

    24 Januar, Mittwoch

    Zeit Temperatur Niederschläge Wind Luftdruck Luftfeuchtigkeit
    00:00 +19°C° 0 mm 5 m/S 766 mmHg 37%
    01:00 +17°C° 0 mm 5 m/S 766 mmHg 35%
    02:00 +17°C° 0 mm 5 m/S 766 mmHg 33%
    03:00 +17°C° 0 mm 5 m/S 766 mmHg 32%
    04:00 +17°C° 0 mm 5 m/S 765 mmHg 31%
    05:00 +17°C° 0 mm 5 m/S 765 mmHg 30%
    06:00 +17°C° 0 mm 5 m/S 766 mmHg 29%
    07:00 +17°C° 0 mm 5 m/S 766 mmHg 29%
    08:00 +17°C° 0 mm 5 m/S 766 mmHg 28%
    09:00 +20°C° 0 mm 5 m/S 766 mmHg 26%
    10:00 +23°C° 0 mm 5 m/S 767 mmHg 24%
    11:00 +26°C° 0 mm 5 m/S 767 mmHg 21%
    12:00 +27°C° 0 mm 5 m/S 766 mmHg 20%
    13:00 +27°C° 0 mm 5 m/S 765 mmHg 18%
    14:00 +28°C° 0 mm 5 m/S 765 mmHg 17%
    15:00 +28°C° 0 mm 5 m/S 765 mmHg 18%
    16:00 +27°C° 0 mm 5 m/S 765 mmHg 18%
    17:00 +27°C° 0 mm 6 m/S 765 mmHg 19%
    18:00 +24°C° 0 mm 6 m/S 765 mmHg 24%
    19:00 +23°C° 0 mm 6 m/S 766 mmHg 28%
    20:00 +21°C° 0 mm 6 m/S 766 mmHg 33%
    21:00 +21°C° 0 mm 6 m/S 766 mmHg 34%
    22:00 +20°C° 0 mm 6 m/S 766 mmHg 34%
    23:00 +20°C° 0 mm 7 m/S 766 mmHg 35%
    Mehr zeigen